Location: Saratoga Springs
(43.0831°N, 73.7850°W)
Time: 01:55:40
(UTC-04:00)

Vanguard 3 - Pass Details

Date: 30 April 2024
Orbit: 509 x 3232 km, 33.3° (Epoch: 26 May)

Event Time Altitude Azimuth Distance (km) Brightness Sun altitude
Exits shadow 03:29:13 23° 243° (WSW) 4,951 10.5 -21.7°
Maximum altitude 03:41:53 58° 177° (S) 2,939 9.6 -20.2°
Drops below altitude 10° 03:54:01 10° 103° (ESE) 4,233 11.2 -18.6°
Sets 03:56:48 0° 99° (E) 4,918 11.7 -18.2°
